Hourly Data Report for October 06, 2017

All times are specified in Local Standard Time (LST). Add 1 hour to adjust for Daylight Saving Time where and when it is observed.

ALGONQUIN PARK EAST GATE
ONTARIO

45°32'00.000" N
78°16'00.000" W
397.00 m
6080192
71581
TNK

Download Data

Hourly Data (October 2017)
Hourly Data Report for October 6, 2017
Temp Definition
°C
Dew Point Temp Definition
°C
Rel Hum Definition
%
Wind Dir Definition
10's deg

Wind Spd Definition
km/h
Visibility Definition
km
Stn Press Definition
kPa
Hmdx Definition


Wind Chill Definition


Weather Definition


TIME
00:00 6.7 5.5 92 0 1   96.99     LegendNANA
01:00 7.2 5.9 92 0 1   96.95     LegendNANA
02:00 7.8 6.7 93 26 2   96.97     LegendNANA
03:00 8.4 7.3 93   0   96.99     LegendNANA
04:00 8.6 7.4 92 0 1   97.00     LegendNANA
05:00 8.8 7.7 93   0   96.99     LegendNANA
06:00 9.0 7.9 93 0 1   97.00     LegendNANA
07:00 9.1 8.0 93   0   97.05     LegendNANA
08:00 10.2 8.3 88 0 1   97.11     LegendNANA
09:00 11.8 6.5 70 0 1   97.12     LegendNANA
10:00 13.0 5.7 61 25 5   97.09     LegendNANA
11:00 14.1 6.3 59 26 6   97.07     LegendNANA
12:00 14.6 5.9 56 26 5   97.04     LegendNANA
13:00 15.6 6.4 54 29 4   97.00     LegendNANA
14:00 15.9 5.7 51 25 6   96.95     LegendNANA
15:00 16.2 6.6 53 26 5   96.93     LegendNANA
16:00 14.2 7.7 65 26 5   96.91     LegendNANA
17:00 13.8 8.0 68 24 5   96.92     LegendNANA
18:00 10.7 7.9 83 0 1   96.93     LegendNANA
19:00 8.6 6.6 87 0 1   96.98     LegendNANA
20:00 7.1 5.5 90   0   97.00     LegendNANA
21:00 6.0 4.6 91   0   97.02     LegendNANA
22:00 5.3 4.1 92   0   96.99     LegendNANA
23:00 4.9 3.8 93   0   96.93     LegendNANA

Notes on Data Quality.

Legend

  • E = Estimated
  • M = Missing
  • NA = Not Available
  • ‡ = Partner data that is not subject to review by the National Climate Archives
Date modified: